Monroe, MI

7:43 AM EDT on April 25, 2018 (GMT -0400)
Custer

Weather History for KTTF - January, 2013

Change the Weather History Date:

Sunday, January 27, 2013

  Actual Average Record
Temperature  
Mean Temperature 21 °F -  
Max Temperature 32 °F 30 °F 66 °F (1944)
Min Temperature 10 °F 16 °F -5 °F (2003)
Degree Days  
Heating Degree Days 44    
Moisture  
Dew Point 19 °F    
Average Humidity 86    
Maximum Humidity 100    
Minimum Humidity 64    
Precipitation  
Precipitation 0.00 in - - ()
Sea Level Pressure  
Sea Level Pressure 30.37 in    
Wind  
Wind Speed 3 mph (SE)    
Max Wind Speed 14 mph    
Max Gust Speed 20 mph    
Visibility 8 miles    
Events Snow    
Averages and records for this station are not official NWS values.
T = Trace of Precipitation, MM = Missing Value Source: NWS Daily Summary

Daily Weather History Graph

Daily Weather History Graph

Search for Another Location

Airport or City:

Astronomy

Jan. 27, 2013 Rise Set
Actual Time 7:50 AM EST 5:42 PM EST
Civil Twilight 7:20 AM EST 6:12 PM EST
Nautical Twilight 6:47 AM EST 6:46 PM EST
Astronomical Twilight 6:14 AM EST 7:19 PM EST
Moon 6:37 PM EST (1/27) 7:41 AM EST (1/27)
Length of Visible Light 10h 51m
Length of Day
9h 51m
Full, 100% of the Moon is Illuminated
Jan 27
Full
Feb 3
Last Quarter
Feb 10
New
Feb 17
First Quarter
Feb 25
Full

Hourly Weather History & Observations

Time (EST) Temp. Windchill Dew Point Humidity Pressure Visibility Wind Dir Wind Speed Gust Speed Precip Events Conditions
12:13 AM 19.4 °F - 17.6 °F 93% 30.43 in 10.0 mi Calm Calm - N/A   Clear
12:33 AM 19.4 °F - 17.6 °F 93% 30.43 in 10.0 mi Calm Calm - N/A   Clear
12:53 AM 19.4 °F - 17.6 °F 93% 30.44 in 10.0 mi Calm Calm - N/A   Clear
1:13 AM 19.4 °F - 17.6 °F 93% 30.44 in 10.0 mi Calm Calm - N/A   Clear
1:33 AM 19.4 °F - 17.6 °F 93% 30.44 in 10.0 mi Calm Calm - N/A   Clear
1:53 AM 19.4 °F - 17.6 °F 93% 30.43 in 7.0 mi Calm Calm - N/A   Clear
2:34 AM 15.8 °F - 14.0 °F 93% 30.44 in 1.8 mi Calm Calm - N/A   Mist
2:54 AM 15.8 °F - 15.8 °F 100% 30.44 in 5.0 mi Calm Calm - N/A   Clear
3:14 AM 15.8 °F - 15.8 °F 100% 30.44 in 7.0 mi Calm Calm - N/A   Clear
3:34 AM 14.0 °F - 12.2 °F 93% 30.44 in 5.0 mi Calm Calm - N/A   Clear
3:54 AM 12.2 °F - 10.4 °F 92% 30.43 in 7.0 mi Calm Calm - N/A   Clear
4:14 AM 14.0 °F - 12.2 °F 93% 30.43 in 7.0 mi Calm Calm - N/A   Clear
4:34 AM 10.4 °F - 8.6 °F 92% 30.43 in 7.0 mi Calm Calm - N/A   Clear
4:54 AM 12.2 °F - 10.4 °F 92% 30.43 in 7.0 mi Calm Calm - N/A   Clear
5:15 AM 12.2 °F - 12.2 °F 100% 30.44 in 4.0 mi Calm Calm - N/A   Scattered Clouds
5:35 AM 10.4 °F - 8.6 °F 92% 30.44 in 5.0 mi Calm Calm - N/A   Clear
5:55 AM 12.2 °F - 10.4 °F 92% 30.45 in 7.0 mi Calm Calm - N/A   Clear
6:35 AM 14.0 °F - 12.2 °F 93% 30.44 in 10.0 mi Calm Calm - N/A   Clear
6:55 AM 15.8 °F - 12.2 °F 86% 30.46 in 10.0 mi Calm Calm - N/A   Clear
7:15 AM 12.2 °F - 12.2 °F 100% 30.44 in 10.0 mi Calm Calm - N/A   Clear
7:35 AM 10.4 °F - 8.6 °F 92% 30.45 in 10.0 mi Calm Calm - N/A   Scattered Clouds
7:55 AM 12.2 °F - 10.4 °F 92% 30.46 in 10.0 mi Calm Calm - N/A   Scattered Clouds
8:15 AM 12.2 °F - 10.4 °F 92% 30.46 in 7.0 mi Calm Calm - N/A   Clear
8:36 AM 12.2 °F - 12.2 °F 100% 30.46 in 7.0 mi Calm Calm - N/A   Clear
9:11 AM 19.4 °F 12.8 °F 17.6 °F 93% 30.45 in 10.0 mi SSE 4.6 mph - N/A   Clear
9:31 AM 21.2 °F 14.9 °F 19.4 °F 93% 30.45 in 10.0 mi SSE 4.6 mph - N/A   Clear
9:51 AM 23.0 °F 14.7 °F 17.6 °F 80% 30.46 in 10.0 mi South 6.9 mph - N/A   Clear
10:11 AM 24.8 °F 16.1 °F 17.6 °F 74% 30.45 in 10.0 mi South 8.1 mph - N/A   Clear
10:31 AM 24.8 °F 13.4 °F 17.6 °F 74% 30.44 in 10.0 mi South 12.7 mph - N/A   Clear
10:51 AM 24.8 °F 16.1 °F 15.8 °F 69% 30.45 in 10.0 mi South 8.1 mph - N/A   Clear
11:11 AM 26.6 °F 16.2 °F 17.6 °F 69% 30.45 in 10.0 mi South 11.5 mph - N/A   Clear
11:31 AM 26.6 °F 16.8 °F 17.6 °F 69% 30.45 in 10.0 mi South 10.4 mph - N/A   Clear
11:52 AM 26.6 °F 17.5 °F 15.8 °F 64% 30.44 in 10.0 mi South 9.2 mph - N/A   Mostly Cloudy
12:12 PM 26.6 °F 17.5 °F 17.6 °F 69% 30.43 in 10.0 mi South 9.2 mph - N/A   Overcast
12:32 PM 26.6 °F 20.0 °F 17.6 °F 69% 30.43 in 10.0 mi South 5.8 mph - N/A   Overcast
12:52 PM 26.6 °F 19.1 °F 19.4 °F 74% 30.43 in 10.0 mi South 6.9 mph - N/A   Mostly Cloudy
1:12 PM 28.4 °F 22.2 °F 19.4 °F 69% 30.42 in 10.0 mi South 5.8 mph - N/A   Mostly Cloudy
1:32 PM 28.4 °F 21.2 °F 19.4 °F 69% 30.40 in 10.0 mi SSW 6.9 mph - N/A   Scattered Clouds
1:52 PM 28.4 °F 21.2 °F 19.4 °F 69% 30.38 in 10.0 mi South 6.9 mph - N/A   Scattered Clouds
2:33 PM 28.4 °F 21.2 °F 21.2 °F 74% 30.36 in 10.0 mi SE 6.9 mph - N/A   Clear
2:53 PM 28.4 °F 21.2 °F 19.4 °F 69% 30.36 in 10.0 mi SSE 6.9 mph - N/A   Clear
3:13 PM 28.4 °F 22.2 °F 21.2 °F 74% 30.34 in 10.0 mi SE 5.8 mph - N/A   Clear
3:33 PM 28.4 °F 21.2 °F 21.2 °F 74% 30.34 in 10.0 mi ESE 6.9 mph - N/A   Clear
3:53 PM 28.4 °F 22.2 °F 21.2 °F 74% 30.33 in 10.0 mi East 5.8 mph - N/A   Clear
4:33 PM 28.4 °F 22.2 °F 23.0 °F 80% 30.32 in 10.0 mi East 5.8 mph - N/A   Scattered Clouds
4:53 PM 28.4 °F 21.2 °F 23.0 °F 80% 30.31 in 10.0 mi ESE 6.9 mph - N/A   Mostly Cloudy
5:13 PM 28.4 °F 23.3 °F 23.0 °F 80% 30.32 in 7.0 mi ESE 4.6 mph - N/A   Overcast
5:33 PM 28.4 °F 22.2 °F 24.8 °F 86% 30.33 in 10.0 mi ESE 5.8 mph - N/A Snow Light Snow
5:53 PM 28.4 °F 22.2 °F 24.8 °F 86% 30.33 in 5.0 mi ESE 5.8 mph - N/A Snow Light Snow
6:14 PM 28.4 °F 21.2 °F 24.8 °F 86% 30.32 in 7.0 mi East 6.9 mph - N/A Snow Light Snow
6:34 PM 28.4 °F 22.2 °F 24.8 °F 86% 30.33 in 1.2 mi ESE 5.8 mph - N/A Snow Light Snow
6:54 PM 28.4 °F 20.4 °F 26.6 °F 93% 30.33 in 1.0 mi ESE 8.1 mph - N/A Snow Snow
7:14 PM 28.4 °F 21.2 °F 26.6 °F 93% 30.31 in 1.5 mi ESE 6.9 mph - N/A Snow Light Snow
7:34 PM 28.4 °F 19.7 °F 26.6 °F 93% 30.29 in 0.8 mi ESE 9.2 mph - N/A Snow Light Snow
7:54 PM 28.4 °F 19.1 °F 26.6 °F 93% 30.26 in 0.8 mi ESE 10.4 mph 17.3 mph N/A Snow Snow
8:14 PM 28.4 °F 18.0 °F 26.6 °F 93% 30.25 in 1.0 mi East 12.7 mph - N/A Snow Light Snow
8:34 PM 28.4 °F 19.1 °F 26.6 °F 93% 30.31 in 5.0 mi SSW 10.4 mph - N/A   Overcast
8:54 PM 28.4 °F 19.1 °F 26.6 °F 93% 30.27 in 5.0 mi SE 10.4 mph - N/A   Overcast
9:15 PM 28.4 °F 18.5 °F 28.4 °F 100% 30.23 in 4.0 mi ESE 11.5 mph 18.4 mph N/A   Overcast
9:35 PM 30.2 °F 19.8 °F 28.4 °F 93% 30.22 in 5.0 mi SE 13.8 mph 18.4 mph N/A   Overcast
9:55 PM 30.2 °F 20.8 °F 26.6 °F 86% 30.21 in 5.0 mi SE 11.5 mph 19.6 mph N/A Snow Light Snow
10:15 PM 30.2 °F 21.9 °F 26.6 °F 86% 30.21 in 7.0 mi SE 9.2 mph 17.3 mph N/A Snow Light Snow
10:35 PM 30.2 °F 21.3 °F 28.4 °F 93% 30.18 in 5.0 mi SE 10.4 mph - N/A   Overcast
11:15 PM 30.2 °F 24.3 °F 28.4 °F 93% 30.18 in 7.0 mi SSE 5.8 mph - N/A   Overcast
11:35 PM 32.0 °F 24.2 °F 28.4 °F 87% 30.14 in 7.0 mi SE 9.2 mph - N/A   Overcast
11:55 PM 32.0 °F 22.5 °F 28.4 °F 87% 30.11 in 7.0 mi SE 12.7 mph - N/A   Overcast